sat.trackr.live / text

‹ back to catalog

GEN1A-1

NORAD 69004 · 2026-100AA

PAYLOAD ACTIVE UNKNOWN

§ Identity

Operator
Country
US
Launch date
2026-05-03
Launch site
AFWTR
Launch vehicle
Mass (kg)
RCS (m²)

External: N2YO · Heavens-Above · Gunter

§ Orbital elements

Epoch: 2026-09-19T22:29:04.689312Z

Period
94.70 min
Inclination
97.3908°
Eccentricity
0.0005771
Mean motion
15.20613968 rev/d
Perigee alt
500.0 km
Apogee alt
508.0 km
Semi-major
6,882.1 km
B*
1.0955e-4
RAAN
158.9755°
Arg perigee
56.6733°
Mean anomaly
303.5055°
Rev number
2,121

§ Raw data

GEN1A-11 69004U 26100AA  26262.93685983  .00002334  00000+0  10955-3 0  99912 69004  97.3908 158.9755 0005771  56.6733 303.5055 15.20613968 21215

JSON: /api/v1/satellites/69004 · /tle

For live sub-satellite position, see the globe view (requires WebGL).

§ Visibility from observer

Set your observer location to see the next 7 days of passes ≥ 10°. The values pass through the URL so the page stays shareable.

No JS? Fill the form by hand. The geolocation button needs JavaScript.